Time,TemperatureF,DewpointF,PressureIn,WindDirection,WindDirectionDegrees,WindSpeedMPH,WindSpeedGustMPH,Humidity,HourlyPrecipIn,Conditions,Clouds,dailyrainin,SoftwareType,DateUTC
2013-07-15 00:01:00,56.0,-99.9,-100.00,West,261,1.0,3.0,-999,0.00,,,-99.99,,2013-07-15 07:01:00,
2013-07-15 00:11:00,56.0,-99.9,-100.00,West,261,1.0,3.0,-999,0.00,,,-99.99,,2013-07-15 07:11:00,
2013-07-15 00:22:00,56.0,-99.9,-100.00,West,261,1.0,3.0,-999,0.00,,,-99.99,,2013-07-15 07:22:00,
2013-07-15 00:33:00,56.0,-99.9,-100.00,West,261,1.0,3.0,-999,0.00,,,-99.99,,2013-07-15 07:33:00,
2013-07-15 00:44:00,56.0,-99.9,-100.00,SSW,212,0.0,1.0,-999,0.00,,,-99.99,,2013-07-15 07:44:00,
2013-07-15 00:53:00,55.0,-99.9,-100.00,NNE,16,1.0,3.0,-999,0.00,,,-99.99,,2013-07-15 07:53:00,
2013-07-15 01:02:00,54.0,-99.9,-100.00,ENE,61,1.0,3.0,-999,0.00,,,-99.99,,2013-07-15 08:02:00,
2013-07-15 01:12:00,54.0,-99.9,-100.00,ENE,74,3.0,3.0,-999,0.00,,,-99.99,,2013-07-15 08:12:00,
2013-07-15 01:32:00,55.0,-99.9,-100.00,NE,50,0.0,3.0,-999,0.00,,,-99.99,,2013-07-15 08:32:00,
2013-07-15 01:44:00,55.0,-99.9,-100.00,ENE,66,4.0,4.0,-999,0.00,,,-99.99,,2013-07-15 08:44:00,
2013-07-15 01:53:00,55.0,-99.9,-100.00,East,90,1.0,6.0,-999,0.00,,,-99.99,,2013-07-15 08:53:00,
2013-07-15 02:02:00,54.0,-99.9,-100.00,ENE,75,6.0,6.0,-999,0.00,,,-99.99,,2013-07-15 09:02:00,
2013-07-15 02:12:00,54.0,-99.9,-100.00,North,0,4.0,9.0,-999,0.00,,,-99.99,,2013-07-15 09:12:00,
2013-07-15 02:22:00,53.0,-99.9,-100.00,NE,54,1.0,9.0,-999,0.00,,,-99.99,,2013-07-15 09:22:00,
2013-07-15 02:32:00,54.0,-99.9,-100.00,NNE,16,1.0,11.0,-999,0.00,,,-99.99,,2013-07-15 09:32:00,
2013-07-15 02:43:00,54.0,-99.9,-100.00,NNE,16,4.0,13.0,-999,0.00,,,-99.99,,2013-07-15 09:43:00,
2013-07-15 02:53:00,54.0,-99.9,-100.00,NNE,28,6.0,9.0,-999,0.00,,,-99.99,,2013-07-15 09:53:00,
2013-07-15 03:02:00,54.0,-99.9,-100.00,ESE,116,6.0,12.0,-999,0.00,,,-99.99,,2013-07-15 10:02:00,
2013-07-15 03:11:00,54.0,-99.9,-100.00,North,5,4.0,11.0,-999,0.00,,,-99.99,,2013-07-15 10:11:00,
2013-07-15 03:22:00,54.0,-99.9,-100.00,NNW,347,11.0,17.0,-999,0.00,,,-99.99,,2013-07-15 10:22:00,
2013-07-15 03:32:00,53.0,-99.9,-100.00,NE,53,4.0,16.0,-999,0.00,,,-99.99,,2013-07-15 10:32:00,
2013-07-15 03:43:00,54.0,-99.9,-100.00,North,11,8.0,18.0,-999,0.00,,,-99.99,,2013-07-15 10:43:00,
2013-07-15 03:53:00,54.0,-99.9,-100.00,North,11,8.0,18.0,-999,0.00,,,-99.99,,2013-07-15 10:53:00,
2013-07-15 04:02:00,54.0,-99.9,-100.00,North,11,8.0,18.0,-999,0.00,,,-99.99,,2013-07-15 11:02:00,
2013-07-15 04:11:00,54.0,-99.9,-100.00,North,357,8.0,20.0,-999,0.00,,,-99.99,,2013-07-15 11:11:00,
2013-07-15 04:22:00,54.0,-99.9,-100.00,NW,307,12.0,21.0,-999,0.00,,,-99.99,,2013-07-15 11:22:00,
2013-07-15 04:32:00,54.0,-99.9,-100.00,NNW,333,10.0,18.0,-999,0.00,,,-99.99,,2013-07-15 11:32:00,
2013-07-15 04:43:00,53.0,-99.9,-100.00,NW,319,6.0,17.0,-999,0.00,,,-99.99,,2013-07-15 11:43:00,
2013-07-15 04:52:00,53.0,-99.9,-100.00,North,358,6.0,17.0,-999,0.00,,,-99.99,,2013-07-15 11:52:00,
2013-07-15 05:01:00,53.0,-99.9,-100.00,NNE,22,9.0,16.0,-999,0.00,,,-99.99,,2013-07-15 12:01:00,
2013-07-15 05:22:00,52.0,-99.9,-100.00,North,350,8.0,16.0,-999,0.00,,,-99.99,,2013-07-15 12:22:00,
2013-07-15 05:33:00,52.0,-99.9,-100.00,North,350,8.0,16.0,-999,0.00,,,-99.99,,2013-07-15 12:33:00,
2013-07-15 05:42:00,53.0,-99.9,-100.00,North,358,4.0,19.0,-999,0.00,,,-99.99,,2013-07-15 12:42:00,
2013-07-15 05:53:00,53.0,-99.9,-100.00,NNE,14,10.0,20.0,-999,0.00,,,-99.99,,2013-07-15 12:53:00,
2013-07-15 06:02:00,54.0,-99.9,-100.00,NNE,16,13.0,21.0,-999,0.00,,,-99.99,,2013-07-15 13:02:00,
2013-07-15 06:11:00,54.0,-99.9,-100.00,NNE,16,13.0,21.0,-999,0.00,,,-99.99,,2013-07-15 13:11:00,
2013-07-15 06:22:00,54.0,-99.9,-100.00,North,9,14.0,19.0,-999,0.00,,,-99.99,,2013-07-15 13:22:00,
2013-07-15 06:33:00,54.0,-99.9,-100.00,WNW,302,8.0,17.0,-999,0.00,,,-99.99,,2013-07-15 13:33:00,
2013-07-15 06:43:00,54.0,-99.9,-100.00,NE,39,11.0,18.0,-999,0.00,,,-99.99,,2013-07-15 13:43:00,
2013-07-15 06:53:00,54.0,-99.9,-100.00,NE,39,11.0,18.0,-999,0.00,,,-99.99,,2013-07-15 13:53:00,
2013-07-15 07:02:00,54.0,-99.9,-100.00,NNE,16,9.0,18.0,-999,0.00,,,-99.99,,2013-07-15 14:02:00,
2013-07-15 07:11:00,54.0,-99.9,-100.00,NNE,16,9.0,18.0,-999,0.00,,,-99.99,,2013-07-15 14:11:00,
2013-07-15 07:33:00,55.0,-99.9,-100.00,WNW,295,9.0,22.0,-999,0.00,,,-99.99,,2013-07-15 14:33:00,
2013-07-15 07:43:00,56.0,-99.9,-100.00,NW,310,14.0,23.0,-999,0.00,,,-99.99,,2013-07-15 14:43:00,
2013-07-15 08:03:00,56.0,-99.9,-100.00,NW,310,7.0,19.0,-999,0.00,,,-99.99,,2013-07-15 15:03:00,
2013-07-15 08:30:00,57.0,-99.9,-100.00,North,5,12.0,22.0,-999,0.00,,,-99.99,,2013-07-15 15:30:00,
2013-07-15 08:42:00,58.0,-99.9,-100.00,NW,319,11.0,22.0,-999,0.00,,,-99.99,,2013-07-15 15:42:00,
2013-07-15 08:54:00,59.0,-99.9,-100.00,North,11,6.0,23.0,-999,0.00,,,-99.99,,2013-07-15 15:54:00,
2013-07-15 09:08:00,58.0,-99.9,-100.00,NNE,30,16.0,23.0,-999,0.00,,,-99.99,,2013-07-15 16:08:00,
2013-07-15 09:15:00,59.0,-99.9,-100.00,North,351,12.0,20.0,-999,0.00,,,-99.99,,2013-07-15 16:15:00,
2013-07-15 09:24:00,59.0,-99.9,-100.00,North,8,8.0,21.0,-999,0.00,,,-99.99,,2013-07-15 16:24:00,
2013-07-15 09:33:00,60.0,-99.9,-100.00,North,1,5.0,21.0,-999,0.00,,,-99.99,,2013-07-15 16:33:00,
2013-07-15 09:50:00,59.0,-99.9,-100.00,NE,35,8.0,21.0,-999,0.00,,,-99.99,,2013-07-15 16:50:00,
2013-07-15 10:08:00,60.0,-99.9,-100.00,NNE,22,10.0,23.0,-999,0.00,,,-99.99,,2013-07-15 17:08:00,
2013-07-15 10:23:00,60.0,-99.9,-100.00,NNE,15,11.0,20.0,-999,0.00,,,-99.99,,2013-07-15 17:23:00,
2013-07-15 10:52:00,61.0,-99.9,-100.00,East,80,8.0,15.0,-999,0.00,,,-99.99,,2013-07-15 17:52:00,
2013-07-15 11:01:00,62.0,-99.9,-100.00,NNE,29,6.0,14.0,-999,0.00,,,-99.99,,2013-07-15 18:01:00,
2013-07-15 11:09:00,61.0,-99.9,-100.00,NE,50,7.0,16.0,-999,0.00,,,-99.99,,2013-07-15 18:09:00,
2013-07-15 11:29:00,63.0,-99.9,-100.00,North,11,8.0,15.0,-999,0.00,,,-99.99,,2013-07-15 18:29:00,
2013-07-15 11:45:00,63.0,-99.9,-100.00,North,352,4.0,16.0,-999,0.00,,,-99.99,,2013-07-15 18:45:00,
2013-07-15 11:59:00,64.0,-99.9,-100.00,NNE,25,7.0,18.0,-999,0.00,,,-99.99,,2013-07-15 18:59:00,
2013-07-15 12:05:00,64.0,-99.9,-100.00,ENE,78,8.0,15.0,-999,0.00,,,-99.99,,2013-07-15 19:05:00,
2013-07-15 12:12:00,65.0,-99.9,-100.00,East,81,3.0,13.0,-999,0.00,,,-99.99,,2013-07-15 19:12:00,
2013-07-15 12:39:00,65.0,-99.9,-100.00,East,81,10.0,11.0,-999,0.00,,,-99.99,,2013-07-15 19:39:00,
2013-07-15 12:57:00,66.0,-99.9,-100.00,NNE,25,7.0,13.0,-999,0.00,,,-99.99,,2013-07-15 19:57:00,
2013-07-15 13:07:00,66.0,-99.9,-100.00,NE,46,1.0,15.0,-999,0.00,,,-99.99,,2013-07-15 20:07:00,
2013-07-15 13:19:00,67.0,-99.9,-100.00,North,0,1.0,13.0,-999,0.00,,,-99.99,,2013-07-15 20:19:00,
2013-07-15 13:29:00,68.0,-99.9,-100.00,North,8,4.0,13.0,-999,0.00,,,-99.99,,2013-07-15 20:29:00,
2013-07-15 13:37:00,68.0,-99.9,-100.00,North,8,4.0,13.0,-999,0.00,,,-99.99,,2013-07-15 20:37:00,
2013-07-15 13:43:00,69.0,-99.9,-100.00,ESE,104,4.0,12.0,-999,0.00,,,-99.99,,2013-07-15 20:43:00,
2013-07-15 14:00:00,69.0,-99.9,-100.00,NE,53,2.0,12.0,-999,0.00,,,-99.99,,2013-07-15 21:00:00,
2013-07-15 14:13:00,71.0,-99.9,-100.00,ESE,112,2.0,16.0,-999,0.00,,,-99.99,,2013-07-15 21:13:00,
2013-07-15 14:24:00,71.0,-99.9,-100.00,NNE,21,6.0,11.0,-999,0.00,,,-99.99,,2013-07-15 21:24:00,
2013-07-15 14:41:00,72.0,-99.9,-100.00,North,358,3.0,9.0,-999,0.00,,,-99.99,,2013-07-15 21:41:00,
2013-07-15 14:48:00,72.0,-99.9,-100.00,North,358,3.0,9.0,-999,0.00,,,-99.99,,2013-07-15 21:48:00,
2013-07-15 15:02:00,71.0,-99.9,-100.00,NE,47,9.0,12.0,-999,0.00,,,-99.99,,2013-07-15 22:02:00,
2013-07-15 15:19:00,72.0,-99.9,-100.00,NE,43,4.0,12.0,-999,0.00,,,-99.99,,2013-07-15 22:19:00,
2013-07-15 15:36:00,73.0,-99.9,-100.00,NE,43,5.0,13.0,-999,0.00,,,-99.99,,2013-07-15 22:36:00,
2013-07-15 15:44:00,73.0,-99.9,-100.00,NNE,16,9.0,13.0,-999,0.00,,,-99.99,,2013-07-15 22:44:00,
2013-07-15 15:55:00,73.0,-99.9,-100.00,NNE,16,9.0,13.0,-999,0.00,,,-99.99,,2013-07-15 22:55:00,
2013-07-15 16:07:00,72.0,-99.9,-100.00,NNW,341,5.0,11.0,-999,0.00,,,-99.99,,2013-07-15 23:07:00,
2013-07-15 16:50:00,74.0,-99.9,-100.00,North,358,4.0,10.0,-999,0.00,,,-99.99,,2013-07-15 23:50:00,
2013-07-15 17:03:00,75.0,-99.9,-100.00,NNE,30,6.0,8.0,-999,0.00,,,-99.99,,2013-07-16 00:03:00,
2013-07-15 17:16:00,75.0,-99.9,-100.00,NNE,30,6.0,8.0,-999,0.00,,,-99.99,,2013-07-16 00:16:00,
2013-07-15 17:28:00,75.0,-99.9,-100.00,NNE,30,6.0,8.0,-999,0.00,,,-99.99,,2013-07-16 00:28:00,
2013-07-15 17:34:00,75.0,-99.9,-100.00,NNE,30,6.0,8.0,-999,0.00,,,-99.99,,2013-07-16 00:34:00,
2013-07-15 17:51:00,78.0,-99.9,-100.00,North,352,2.0,8.0,-999,0.00,,,-99.99,,2013-07-16 00:51:00,
2013-07-15 18:12:00,79.0,-99.9,-100.00,ESE,104,3.0,5.0,-999,0.00,,,-99.99,,2013-07-16 01:12:00,
2013-07-15 18:17:00,79.0,-99.9,-100.00,ESE,104,3.0,5.0,-999,0.00,,,-99.99,,2013-07-16 01:17:00,
2013-07-15 18:29:00,81.0,-99.9,-100.00,SE,137,0.0,3.0,-999,0.00,,,-99.99,,2013-07-16 01:29:00,
2013-07-15 18:49:00,81.0,-99.9,-100.00,WSW,258,0.0,5.0,-999,0.00,,,-99.99,,2013-07-16 01:49:00,
2013-07-15 19:02:00,80.0,-99.9,-100.00,West,265,3.0,3.0,-999,0.00,,,-99.99,,2013-07-16 02:02:00,
2013-07-15 19:08:00,80.0,-99.9,-100.00,WNW,286,4.0,5.0,-999,0.00,,,-99.99,,2013-07-16 02:08:00,
2013-07-15 19:35:00,78.0,-99.9,-100.00,West,272,5.0,7.0,-999,0.00,,,-99.99,,2013-07-16 02:35:00,
2013-07-15 20:11:00,78.0,-99.9,-100.00,WNW,289,0.0,3.0,-999,0.00,,,-99.99,,2013-07-16 03:11:00,
2013-07-15 20:17:00,78.0,-99.9,-100.00,WNW,289,0.0,3.0,-999,0.00,,,-99.99,,2013-07-16 03:17:00,
2013-07-15 20:41:00,79.0,-99.9,-100.00,NNW,343,3.0,5.0,-999,0.00,,,-99.99,,2013-07-16 03:41:00,
2013-07-15 20:49:00,75.0,-99.9,-100.00,NNW,337,8.0,9.0,-999,0.00,,,-99.99,,2013-07-16 03:49:00,
2013-07-15 21:12:00,72.0,-99.9,-100.00,NNW,341,8.0,14.0,-999,0.00,,,-99.99,,2013-07-16 04:12:00,
2013-07-15 21:32:00,72.0,-99.9,-100.00,North,358,3.0,11.0,-999,0.00,,,-99.99,,2013-07-16 04:32:00,
2013-07-15 21:43:00,69.0,-99.9,-100.00,North,358,7.0,15.0,-999,0.00,,,-99.99,,2013-07-16 04:43:00,
2013-07-15 21:53:00,69.0,-99.9,-100.00,North,358,7.0,15.0,-999,0.00,,,-99.99,,2013-07-16 04:53:00,
2013-07-15 22:01:00,68.0,-99.9,-100.00,NNW,341,3.0,14.0,-999,0.00,,,-99.99,,2013-07-16 05:01:00,
2013-07-15 22:11:00,68.0,-99.9,-100.00,East,85,2.0,11.0,-999,0.00,,,-99.99,,2013-07-16 05:11:00,
2013-07-15 22:22:00,67.0,-99.9,-100.00,SSW,194,4.0,12.0,-999,0.00,,,-99.99,,2013-07-16 05:22:00,
2013-07-15 22:32:00,67.0,-99.9,-100.00,NW,323,5.0,15.0,-999,0.00,,,-99.99,,2013-07-16 05:32:00,
2013-07-15 22:43:00,67.0,-99.9,-100.00,WNW,299,3.0,10.0,-999,0.00,,,-99.99,,2013-07-16 05:43:00,
2013-07-15 22:52:00,67.0,-99.9,-100.00,WNW,299,3.0,10.0,-999,0.00,,,-99.99,,2013-07-16 05:52:00,
2013-07-15 23:01:00,66.0,-99.9,-100.00,NNE,18,19.0,19.0,-999,0.00,,,-99.99,,2013-07-16 06:01:00,
2013-07-15 23:12:00,66.0,-99.9,-100.00,NNE,18,19.0,19.0,-999,0.00,,,-99.99,,2013-07-16 06:12:00,
2013-07-15 23:22:00,66.0,-99.9,-100.00,NNE,18,19.0,19.0,-999,0.00,,,-99.99,,2013-07-16 06:22:00,
2013-07-15 23:32:00,67.0,-99.9,-100.00,NNE,19,3.0,21.0,-999,0.00,,,-99.99,,2013-07-16 06:32:00,
2013-07-15 23:52:00,66.0,-99.9,-100.00,NNE,32,14.0,26.0,-999,0.00,,,-99.99,,2013-07-16 06:52:00,